[[[{"header":{"parameterUnit":"kt","parameterCategory":2,"dx":1,"dy":1,"la1":30.253999710083008,"la2":30.299108505249023,"lo1":-89.0895004272461,"lo2":-89.04439544677734,"nx":28,"ny":28,"refTime":"2022-10-13T21:00:00:Z","depth":"0","parameterNumber":2,"parameterNumberName":"U-component_of_CURRENTS"},"data":[0.4968,0.4899,0.4881,0.4726,0.4691,0.4559,0.4529,0.447,0.455,0.4513,0.4539,0.4675,0.4796,0.4657,0.4398,0.4298,0.399,0.3765,0.3956,0.4369,0.4449,0.4525,0.4288,0.3767,0.3766,0.2801,0.2793,0.2787,0.504,0.5041,0.5007,0.4966,0.4908,0.4989,0.5005,0.4938,0.4942,0.5138,0.5256,0.5327,0.5313,0.5453,0.5352,0.5166,0.4927,0.5016,0.4529,0.4473,0.5277,0.505,0.4682,0.4682,0.4682,0.4683,0.4683,0.4683,0.5196,0.5167,0.5185,0.5146,0.5162,0.5163,0.5123,0.5218,0.5296,0.5399,0.5688,0.5821,0.5943,0.6333,0.642,0.6194,0.6321,0.5938,0.5939,0.5804,0.547,0.6353,0.6364,0.6369,0.6374,0.6379,0.6383,0,0.5316,0.5334,0.5339,0.5325,0.5331,0.5353,0.5411,0.5441,0.5633,0.5747,0.5933,0.6101,0.6457,0.6497,0.6847,0.6945,0.6619,0.6937,0.6748,0.5798,0.5503,0.5343,0.6291,0.6337,0.6343,0.6347,0.635,0.6353,0.5438,0.5434,0.5478,0.5469,0.5485,0.5517,0.5541,0.5691,0.5744,0.6002,0.6046,0.6353,0.6518,0.6919,0.705,0.7319,0.713,0.706,0.6838,0.6589,0.654,0.6346,0.6198,0.6416,0.6408,0.6401,0.6396,0,0.5498,0.555,0.5549,0.5616,0.5637,0.5639,0.5738,0.5774,0.5914,0.6018,0.6082,0.6319,0.6579,0.6807,0.7068,0.7101,0.7077,0.7359,0.6883,0.6834,0.661,0.6557,0.6422,0.6253,0.7469,0.7469,0.747,0,0.5598,0.5593,0.5658,0.5664,0.5674,0.5766,0.5805,0.5883,0.6005,0.6072,0.6242,0.6344,0.6524,0.6717,0.6852,0.7037,0.7094,0.7068,0.7081,0.6659,0.6618,0.6382,0.6303,0.7127,0.7125,0.7123,0.7121,0,0.5647,0.5694,0.57,0.5719,0.5804,0.5825,0.5872,0.5978,0.6025,0.6175,0.6234,0.6399,0.6469,0.6628,0.678,0.6713,0.7014,0.6926,0.7,0.6999,0.6607,0.6563,0.6499,0.7118,0.7117,0.7116,0.7115,0,0.5722,0.5748,0.5767,0.5827,0.5839,0.5866,0.5939,0.5989,0.6103,0.614,0.6237,0.6291,0.6436,0.6403,0.6618,0.6529,0.6627,0.6681,0.6693,0.6597,0.653,0.6337,0.6467,0.6225,0.6797,0.6793,0.679,0,0.5737,0.5775,0.5819,0.5846,0.586,0.5912,0.5958,0.6014,0.6056,0.6113,0.6178,0.6222,0.6214,0.6247,0.6337,0.6384,0.6514,0.6373,0.6522,0.6528,0.6467,0.6674,0.6214,0.643,0.6747,0.6752,0.6755,0,0.5745,0.5821,0.5813,0.5827,0.5879,0.5898,0.5957,0.5992,0.6026,0.6058,0.6103,0.6146,0.6162,0.6158,0.6163,0.6246,0.6445,0.6215,0.6216,0.6329,0.6667,0.662,0.6646,0.642,0.6424,0.6428,0.672,0,0.5815,0.5807,0.5825,0.5846,0.5874,0.5891,0.5926,0.5947,0.5948,0.5954,0.6,0.5994,0.5998,0.6019,0.5992,0.6113,0.6113,0.6054,0.5987,0.6119,0.6231,0.6259,0.5885,0.5882,0.588,0.5878,0,0,0.5779,0.5777,0.5789,0.5815,0.5827,0.5844,0.5857,0.5873,0.5861,0.5867,0.5842,0.5846,0.5813,0.5869,0.5915,0.5892,0.594,0.5857,0.6045,0.6064,0.6082,0.6195,0.6225,0.5873,0.5872,0.5871,0.587,0,0.579,0.5772,0.5777,0.5794,0.5826,0.5824,0.5837,0.5833,0.5826,0.5831,0.5789,0.5808,0.5752,0.5758,0.575,0.5852,0.5821,0.5846,0.594,0.6021,0.6044,0.6063,0.618,0.6208,0.5864,0.5864,0.5865,0,0.5772,0.5773,0.5763,0.5762,0.577,0.5787,0.5756,0.5779,0.579,0.5704,0.5693,0.5669,0.5625,0.5644,0.5643,0.5608,0.5735,0.5645,0.5658,0.5643,0.5721,0.5747,0.577,0.5471,0.547,0.5469,0,0,0.5774,0.5766,0.5763,0.5759,0.577,0.576,0.5766,0.5752,0.5732,0.5716,0.566,0.5622,0.5608,0.5593,0.5556,0.5572,0.5584,0.5601,0.5619,0.5635,0.5629,0.571,0.5735,0.5465,0.5465,0.5465,0,0,0.5772,0.5757,0.5744,0.5728,0.5743,0.573,0.5743,0.5725,0.5693,0.5686,0.5604,0.5585,0.5585,0.5537,0.5502,0.5543,0.5463,0.5468,0.5579,0.5601,0.5619,0.5619,0.5405,0,0,0,0,0,0.5774,0.5766,0.5755,0.5753,0.5723,0.5741,0.5739,0.571,0.5688,0.569,0.5646,0.5576,0.5516,0.5481,0.5464,0.5513,0.542,0.5428,0.5435,0.558,0.5604,0.5624,0,0,0,0,0,0,0.5773,0.5767,0.5757,0.5743,0.5738,0.5739,0.569,0.5681,0.5686,0.5678,0.5591,0.5574,0.5511,0.5483,0.547,0.5518,0.5409,0.5423,0.543,0.5436,0.5588,0.5607,0.5624,0,0,0,0,0,0.5773,0.5768,0.5718,0.5743,0.5739,0.5715,0.5688,0.568,0.5668,0.5599,0.5581,0.5651,0.5514,0.5497,0.5475,0.5527,0.5418,0.5413,0.5427,0.5433,0.5438,0.5597,0,0,0,0,0,0,0.5772,0.5747,0.5717,0.5717,0.5732,0.5714,0.5704,0.5679,0.5584,0.5573,0.5654,0.5648,0.5516,0.5502,0.5489,0.5537,0.5425,0.542,0.5417,0.5431,0.5436,0.5439,0,0,0,0,0,0,0.5751,0.5746,0.5716,0.5703,0.57,0.5713,0.5704,0.566,0.5581,0.5639,0.5636,0.5652,0.552,0.5506,0.5496,0.543,0.543,0.5426,0.5422,0.542,0.5435,0.5438,0,0,0,0,0,0,0.5749,0.5745,0.5702,0.57,0.5697,0.5682,0.567,0.5622,0.5627,0.5641,0.5623,0.5621,0.5525,0.5514,0.5501,0.544,0.5433,0.543,0.5427,0.5425,0.5423,0,0,0,0,0,0,0,0.5748,0.5773,0.5734,0.5697,0.5695,0.5718,0.5716,0.5714,0.5627,0.5625,0.5623,0.5622,0.5457,0.5452,0.5446,0.5448,0,0,0.5431,0.5428,0,0,0,0,0,0,0,0,0.5776,0.5774,0.5734,0.5735,0.5735,0.5717,0.5716,0.5715,0.5626,0.5625,0.5624,0.5622,0.5455,0.5451,0.5447,0,0,0,0,0,0,0,0,0,0,0,0,0,0,0,0.5734,0.5735,0,0.5717,0.5716,0.5715,0.5626,0.5625,0.5624,0.5623,0.5454,0.5451,0.5447,0,0,0,0,0,0,0,0,0,0,0,0,0,0,0,0,0,0,0,0,0,0,0,0,0,0,0,0,0,0,0,0,0,0,0,0,0,0,0,0,0,0,0,0,0,0,0,0,0,0,0,0,0,0,0,0,0,0,0,0,0,0,0,0,0,0,0,0,0]}],[{"header":{"parameterUnit":"kt","parameterCategory":2,"dx":1,"dy":1,"la1":30.253999710083008,"la2":30.299108505249023,"lo1":-89.0895004272461,"lo2":-89.04439544677734,"nx":28,"ny":28,"refTime":"2022-10-13T21:00:00:Z","depth":"0","parameterNumber":3,"parameterNumberName":"V-component_of_CURRENTS"},"data":[0.0751,0.0891,0.0948,0.1214,0.1336,0.1564,0.1728,0.202,0.2291,0.2659,0.281,0.2884,0.2397,0.0905,-0.0187,-0.045,-0.0775,-0.0802,-0.0961,-0.0713,-0.0691,-0.0669,-0.0739,-0.0894,-0.0895,-0.1375,-0.138,-0.1384,0.0672,0.0742,0.0892,0.1067,0.1231,0.1289,0.1575,0.1751,0.2122,0.2448,0.2705,0.2637,0.2144,0.1508,0.0569,0.0073,-0.0142,-0.022,-0.0401,-0.0437,0.0019,-0.0021,-0.0026,-0.0026,-0.0025,-0.0025,-0.0025,-0.0025,0.0525,0.0611,0.072,0.0882,0.1024,0.1228,0.1381,0.1605,0.1892,0.2209,0.2301,0.2508,0.2078,0.1539,0.1183,0.0439,0.0433,0.0142,0.0029,-0.0055,-0.0159,0.0341,0.043,0.0429,0.0429,0.0429,0.0429,0,0.0394,0.0426,0.0533,0.0699,0.0829,0.0989,0.1161,0.1305,0.1452,0.1658,0.1927,0.2028,0.1842,0.1608,0.1184,0.0924,0.0298,0.0453,0.0213,-0.0042,-0.0167,-0.0286,0.0176,0.0339,0.0338,0.0338,0.0337,0.0337,0.0205,0.0297,0.0435,0.0519,0.0577,0.074,0.0851,0.0925,0.1058,0.1282,0.142,0.1459,0.155,0.1322,0.0966,0.0698,0.0421,0.0444,0.0271,0.0036,-0.014,-0.0257,-0.0322,0.0327,0.0329,0.033,0.033,0,0.0104,0.0128,0.0279,0.0385,0.0432,0.0559,0.0695,0.081,0.0867,0.108,0.1124,0.1115,0.1099,0.0893,0.074,0.0505,0.0279,0.0329,0.0357,0.031,-0.0028,-0.0151,-0.0183,-0.0252,0.0259,0.026,0.026,0,-0.0056,0.0055,0.0102,0.0187,0.0358,0.0355,0.053,0.0556,0.0653,0.0812,0.0709,0.0846,0.062,0.0601,0.041,0.0302,0.0344,0.0104,0.0055,0.0058,0.0054,-0.0169,-0.0302,0.0099,0.0098,0.0098,0.0097,0,-0.0199,-0.0114,0.0015,0.0049,0.0124,0.02,0.0246,0.0304,0.0384,0.0458,0.0529,0.0521,0.0547,0.044,0.0271,0.018,0.0233,0.0077,0.0008,0.0004,0.0002,-0.0007,-0.0032,0.0096,0.0096,0.0096,0.0096,0,-0.0347,-0.029,-0.0157,-0.0066,-0.0037,0.0021,0.0148,0.0188,0.0247,0.0249,0.0286,0.0237,0.0277,0.0127,0.0092,0.0047,-0.0048,-0.0123,-0.0123,-0.0162,-0.0309,-0.0187,-0.0039,-0.0268,-0.0199,-0.0201,-0.0203,0,-0.0436,-0.0346,-0.0385,-0.0266,-0.02,-0.0226,-0.0162,-0.0131,-0.013,-0.0053,-0.0082,-0.0035,-0.0174,-0.0158,-0.0162,-0.0246,-0.0216,-0.0283,-0.0339,-0.0339,-0.0316,-0.0178,-0.0157,-0.0076,-0.023,-0.0227,-0.0225,0,-0.0523,-0.0535,-0.0518,-0.0459,-0.0462,-0.0436,-0.0393,-0.0337,-0.0263,-0.0314,-0.0196,-0.0252,-0.0285,-0.0298,-0.0364,-0.0353,-0.0268,-0.0463,-0.0467,-0.0393,-0.0215,-0.0219,-0.0201,-0.0339,-0.0335,-0.0332,-0.0246,0,-0.0616,-0.0584,-0.058,-0.0543,-0.0543,-0.0521,-0.0529,-0.0525,-0.054,-0.0536,-0.0498,-0.0566,-0.0554,-0.0592,-0.0646,-0.0558,-0.0606,-0.0682,-0.0707,-0.0627,-0.0611,-0.0593,-0.0846,-0.0849,-0.0852,-0.0854,0,0,-0.0654,-0.063,-0.0685,-0.0661,-0.0638,-0.0702,-0.0649,-0.0666,-0.07,-0.0669,-0.0732,-0.0741,-0.0804,-0.073,-0.0722,-0.0791,-0.0798,-0.0773,-0.0697,-0.0679,-0.0663,-0.064,-0.062,-0.0858,-0.0859,-0.086,-0.0861,0,-0.0684,-0.0694,-0.0679,-0.0685,-0.0709,-0.0718,-0.0719,-0.0748,-0.0748,-0.0753,-0.0786,-0.0797,-0.0868,-0.0856,-0.0866,-0.083,-0.0868,-0.0878,-0.074,-0.0721,-0.0699,-0.0681,-0.0653,-0.0634,-0.0867,-0.0867,-0.0867,0,-0.0703,-0.0712,-0.0709,-0.072,-0.0738,-0.0718,-0.0768,-0.0792,-0.076,-0.0846,-0.0828,-0.0881,-0.0933,-0.0934,-0.0948,-0.0973,-0.0921,-0.098,-0.0969,-0.0919,-0.09,-0.0877,-0.0857,-0.1108,-0.1108,-0.1108,0,0,-0.0709,-0.0709,-0.0724,-0.0721,-0.0729,-0.0757,-0.0776,-0.0791,-0.0821,-0.0835,-0.087,-0.0911,-0.0932,-0.095,-0.0993,-0.1009,-0.1011,-0.1,-0.0989,-0.0979,-0.0924,-0.0902,-0.0882,-0.1107,-0.1107,-0.1107,0,0,-0.0717,-0.0727,-0.072,-0.0715,-0.0737,-0.0774,-0.0793,-0.0806,-0.0838,-0.084,-0.0885,-0.0899,-0.0917,-0.0974,-0.0965,-0.0986,-0.1045,-0.1049,-0.0912,-0.09,-0.0889,-0.0802,-0.1001,0,0,0,0,0,-0.0727,-0.0723,-0.0716,-0.0718,-0.0736,-0.0768,-0.0776,-0.0806,-0.081,-0.082,-0.085,-0.0882,-0.0974,-0.0967,-0.0982,-0.0943,-0.1105,-0.1106,-0.1106,-0.0938,-0.0924,-0.0912,0,0,0,0,0,0,-0.0728,-0.0726,-0.0718,-0.0746,-0.0753,-0.0767,-0.0777,-0.0785,-0.0809,-0.0812,-0.0873,-0.0884,-0.0916,-0.0963,-0.0976,-0.0936,-0.0997,-0.1105,-0.1106,-0.1106,-0.0933,-0.0921,-0.0911,0,0,0,0,0,-0.0729,-0.0727,-0.0736,-0.0749,-0.0754,-0.0796,-0.0776,-0.0784,-0.0801,-0.086,-0.0871,-0.0823,-0.0915,-0.0929,-0.0971,-0.0928,-0.0988,-0.0993,-0.1106,-0.1106,-0.1106,-0.0927,0,0,0,0,0,0,-0.0729,-0.0741,-0.074,-0.0745,-0.0746,-0.0797,-0.08,-0.0782,-0.0848,-0.0858,-0.0812,-0.0814,-0.0915,-0.0926,-0.0937,-0.0921,-0.0981,-0.0986,-0.0989,-0.1106,-0.1106,-0.1106,0,0,0,0,0,0,-0.0743,-0.0744,-0.0742,-0.0737,-0.0741,-0.0798,-0.08,-0.0848,-0.0849,-0.0797,-0.08,-0.0812,-0.091,-0.0924,-0.0932,-0.1006,-0.0976,-0.0981,-0.0984,-0.0986,-0.1106,-0.1106,0,0,0,0,0,0,-0.0745,-0.0746,-0.0735,-0.0739,-0.0743,-0.0802,-0.0844,-0.0865,-0.0828,-0.0794,-0.0828,-0.0827,-0.0908,-0.0916,-0.0929,-0.0999,-0.1004,-0.0976,-0.0979,-0.0981,-0.0983,0,0,0,0,0,0,0,-0.0747,-0.0716,-0.0711,-0.0741,-0.0744,-0.0794,-0.0795,-0.0796,-0.0828,-0.0828,-0.0828,-0.0828,-0.095,-0.0955,-0.096,-0.0993,0,0,-0.0976,-0.0978,0,0,0,0,0,0,0,0,-0.0718,-0.0717,-0.0711,-0.0713,-0.0714,-0.0794,-0.0795,-0.0796,-0.0828,-0.0828,-0.0828,-0.0828,-0.0952,-0.0956,-0.096,0,0,0,0,0,0,0,0,0,0,0,0,0,0,0,-0.0712,-0.0713,0,-0.0794,-0.0795,-0.0796,-0.0828,-0.0828,-0.0828,-0.0828,-0.0953,-0.0956,-0.0959,0,0,0,0,0,0,0,0,0,0,0,0,0,0,0,0,0,0,0,0,0,0,0,0,0,0,0,0,0,0,0,0,0,0,0,0,0,0,0,0,0,0,0,0,0,0,0,0,0,0,0,0,0,0,0,0,0,0,0,0,0,0,0,0,0,0,0,0,0]}]],[[{"header":{"parameterUnit":"kt","parameterCategory":2,"dx":1,"dy":1,"la1":30.253999710083008,"la2":30.299108505249023,"lo1":-89.0895004272461,"lo2":-89.04439544677734,"nx":28,"ny":28,"refTime":"2022-10-13T21:00:00:Z","depth":"2","parameterNumber":2,"parameterNumberName":"U-component_of_CURRENTS"},"data":[0.5198,0.5126,0.5108,0.4949,0.4909,0.4782,0.4758,0.4558,0.4406,0.3869,0.358,0.3616,0.3846,0.3161,0.3096,0.2866,0.3251,0.2758,0.4176,0.4143,0.4233,0.4497,0.4282,0,0,0,0,0,0.5271,0.5263,0.5226,0.5182,0.5124,0.5201,0.5224,0.5096,0.4969,0.4836,0.4695,0.4173,0.3985,0.4103,0.3747,0.3728,0.368,0.3669,0.3558,0.3664,0.3759,0.3544,0.2718,0.2713,0.2709,0.2705,0,0,0.5422,0.5392,0.5403,0.5361,0.5373,0.5379,0.5342,0.5383,0.5396,0.5329,0.5528,0.5344,0.5327,0.5006,0.489,0.4814,0.521,0.5001,0.5036,0.5084,0.4937,0.4798,0.448,0.4487,0.4494,0.4499,0.4504,0,0.5543,0.5553,0.556,0.5541,0.5543,0.5565,0.5621,0.5656,0.5842,0.5892,0.5957,0.6014,0.6068,0.5773,0.5785,0.5727,0.587,0.5656,0.6584,0.535,0.521,0.5165,0.5204,0.5001,0.5012,0.502,0.5026,0.503,0.5645,0.5653,0.5691,0.5681,0.5703,0.5727,0.5751,0.5902,0.5954,0.6185,0.6218,0.6403,0.6452,0.6543,0.6441,0.6424,0.6686,0.5904,0.5772,0.6504,0.6458,0.6455,0.645,0.5145,0.513,0.5118,0.5108,0,0.5659,0.5755,0.5771,0.5841,0.5858,0.5852,0.5953,0.5985,0.6126,0.622,0.6277,0.6482,0.6614,0.6738,0.6851,0.6769,0.6795,0.6736,0.6133,0.6019,0.6489,0.6477,0.6522,0.6515,0.651,0.6505,0.6501,0,0.5711,0.576,0.5837,0.5867,0.5886,0.5979,0.6022,0.6096,0.6213,0.6276,0.6441,0.6521,0.6678,0.6772,0.6814,0.6783,0.6915,0.6693,0.6649,0.6163,0.6101,0.6749,0.6728,0.6927,0.6927,0.6927,0.6927,0,0.5664,0.5814,0.5878,0.5923,0.6013,0.6047,0.6084,0.6184,0.624,0.6372,0.6424,0.6581,0.6636,0.6726,0.6782,0.6762,0.689,0.6847,0.6657,0.664,0.6126,0.6057,0.6927,0.6927,0.6927,0.6927,0.6927,0,0.5716,0.5754,0.5889,0.5953,0.5972,0.6041,0.608,0.6179,0.6286,0.6329,0.6433,0.6481,0.6624,0.6583,0.6728,0.6693,0.6689,0.6701,0.6701,0.6465,0.6354,0.58,0.5841,0.6626,0.6624,0.6622,0.6621,0,0.5607,0.5739,0.5781,0.5908,0.5939,0.596,0.6061,0.6123,0.616,0.6231,0.6307,0.6405,0.6415,0.6445,0.6521,0.6562,0.6608,0.6555,0.6528,0.6527,0.6287,0.6458,0.5892,0.5844,0.6599,0.6601,0.6603,0,0.5493,0.5607,0.5634,0.5652,0.5724,0.574,0.5883,0.5932,0.5973,0.6087,0.6158,0.6342,0.6317,0.6364,0.6379,0.6438,0.6559,0.6389,0.6388,0.6338,0.6649,0.6448,0.6443,0.6564,0.6568,0.6571,0.6585,0,0.5414,0.5476,0.5526,0.5569,0.5616,0.5683,0.5702,0.5765,0.5772,0.5789,0.595,0.601,0.6091,0.6156,0.615,0.6312,0.6259,0.6232,0.6095,0.627,0.6252,0.6266,0.6046,0.6043,0.604,0.6038,0,0,0.5252,0.5296,0.5265,0.5334,0.5365,0.5323,0.5405,0.5449,0.5523,0.5553,0.5558,0.5738,0.5784,0.5935,0.6021,0.6042,0.6037,0.598,0.6199,0.6217,0.6233,0.6225,0.6242,0.6033,0.6032,0.6032,0.6031,0,0.5169,0.5151,0.5219,0.5255,0.5281,0.5255,0.5293,0.5306,0.5347,0.5465,0.5472,0.5578,0.5688,0.5742,0.578,0.5991,0.591,0.6036,0.6117,0.6174,0.6196,0.6215,0.6211,0.6228,0.6024,0.6025,0.6025,0,0.5035,0.5007,0.505,0.5056,0.507,0.5132,0.5061,0.5132,0.5208,0.5152,0.5296,0.5342,0.5394,0.5538,0.561,0.554,0.576,0.5706,0.5722,0.571,0.5761,0.5788,0.5812,0.5488,0.5486,0.5485,0,0,0.4959,0.4995,0.4976,0.5034,0.5045,0.5035,0.5064,0.5073,0.5114,0.5148,0.5181,0.5242,0.5335,0.538,0.5456,0.5557,0.5526,0.564,0.5665,0.5686,0.5685,0.5742,0.577,0.5478,0.5478,0.5477,0,0,0.4936,0.4913,0.49,0.4945,0.4981,0.4959,0.502,0.501,0.5086,0.5104,0.5092,0.5109,0.528,0.5265,0.5176,0.5415,0.5314,0.5331,0.5404,0.5435,0.546,0.544,0.509,0,0,0,0,0,0.4857,0.4906,0.4894,0.4898,0.4899,0.4947,0.4952,0.4971,0.4953,0.5022,0.5067,0.5021,0.5241,0.516,0.5168,0.5266,0.5388,0.5404,0.5419,0.554,0.5574,0.5602,0,0,0,0,0,0,0.4858,0.4859,0.4893,0.4863,0.4865,0.4943,0.4886,0.4891,0.4951,0.4958,0.5009,0.5019,0.5007,0.5152,0.516,0.5255,0.5087,0.5394,0.5408,0.542,0.5552,0.5579,0.5602,0,0,0,0,0,0.4858,0.4859,0.4863,0.4863,0.4865,0.4891,0.4887,0.4892,0.4951,0.4952,0.4964,0.4978,0.5005,0.5018,0.5157,0.5254,0.5081,0.5084,0.5403,0.5414,0.5423,0.5565,0,0,0,0,0,0,0.4859,0.4852,0.4863,0.4865,0.4882,0.4892,0.4895,0.4892,0.4944,0.4954,0.4915,0.4919,0.5003,0.5013,0.5023,0.5257,0.5076,0.5079,0.5081,0.5411,0.5419,0.5427,0,0,0,0,0,0,0.4852,0.4852,0.4864,0.4886,0.489,0.4893,0.4896,0.4924,0.4947,0.4904,0.4908,0.4917,0.502,0.501,0.5017,0.5057,0.5072,0.5075,0.5078,0.5079,0.5418,0.5424,0,0,0,0,0,0,0.4852,0.4853,0.4885,0.4888,0.4891,0.4902,0.4921,0.494,0.4916,0.4903,0.4921,0.4924,0.5018,0.5024,0.5013,0.5049,0.5055,0.5072,0.5074,0.5076,0.5077,0,0,0,0,0,0,0,0.4853,0.4848,0.4863,0.489,0.4893,0.4877,0.4877,0.4876,0.4917,0.4919,0.4921,0.4923,0.5055,0.5058,0.5061,0.5042,0,0,0.5072,0.5074,0,0,0,0,0,0,0,0,0.4848,0.4848,0.4863,0.4864,0.4865,0.4877,0.4877,0.4876,0.4917,0.4919,0.492,0.4922,0.5055,0.5058,0.5061,0,0,0,0,0,0,0,0,0,0,0,0,0,0,0,0.4863,0.4864,0,0.4877,0.4877,0.4876,0.4917,0.4919,0.492,0.4921,0.5056,0.5058,0.5061,0,0,0,0,0,0,0,0,0,0,0,0,0,0,0,0,0,0,0,0,0,0,0,0,0,0,0,0,0,0,0,0,0,0,0,0,0,0,0,0,0,0,0,0,0,0,0,0,0,0,0,0,0,0,0,0,0,0,0,0,0,0,0,0,0,0,0,0,0]}],[{"header":{"parameterUnit":"kt","parameterCategory":2,"dx":1,"dy":1,"la1":30.253999710083008,"la2":30.299108505249023,"lo1":-89.0895004272461,"lo2":-89.04439544677734,"nx":28,"ny":28,"refTime":"2022-10-13T21:00:00:Z","depth":"2","parameterNumber":3,"parameterNumberName":"V-component_of_CURRENTS"},"data":[0.0821,0.0954,0.101,0.1267,0.1387,0.1609,0.1771,0.2012,0.2142,0.2229,0.2173,0.2039,0.1564,0.1039,0.052,0.0152,0.0088,0.0068,0.0117,0.0272,0.0284,-0.0054,-0.0067,0,0,0,0,0,0.0747,0.0814,0.0959,0.113,0.1291,0.1351,0.1633,0.1783,0.2106,0.2219,0.2325,0.1912,0.152,0.1051,0.0336,-0.0091,-0.0108,-0.0223,-0.0148,-0.0139,-0.0132,-0.0148,-0.0213,-0.0213,-0.0214,-0.0215,0,0,0.0611,0.0692,0.0798,0.0955,0.1096,0.1297,0.1448,0.1652,0.1913,0.2129,0.2165,0.2154,0.1732,0.0984,0.058,0.0098,0.0088,-0.0127,-0.0121,-0.0115,-0.0133,-0.0167,-0.0192,-0.0192,-0.0192,-0.0192,-0.0193,0,0.0502,0.0545,0.0625,0.0786,0.0912,0.1072,0.124,0.138,0.1527,0.1709,0.1924,0.1955,0.1613,0.124,0.0678,0.0413,0.0122,0.0033,0.0098,0.0005,-0.0025,-0.0034,-0.0034,-0.002,-0.0019,-0.0018,-0.0018,-0.0018,0.0419,0.0444,0.0566,0.0642,0.0688,0.0833,0.0942,0.102,0.1152,0.1362,0.1494,0.1469,0.1482,0.1128,0.0709,0.0336,0.0268,0.0067,-0.0048,-0.0052,-0.0062,-0.0063,-0.0064,-0.001,-0.0011,-0.0012,-0.0012,0,0.0414,0.0385,0.0442,0.0517,0.0562,0.0666,0.0807,0.0915,0.0971,0.1182,0.1227,0.1214,0.1127,0.0884,0.0682,0.043,0.0239,0.0136,0.015,0.0138,-0.005,-0.0053,-0.0045,-0.0047,-0.0049,-0.0051,-0.0053,0,0.0403,0.0393,0.0436,0.044,0.0552,0.0518,0.0653,0.0683,0.0781,0.093,0.0838,0.0965,0.0748,0.0686,0.0462,0.026,0.0343,0.0022,0.0012,0.0035,0.0028,0.0085,0.0082,0.0112,0.0112,0.0112,0.0112,0,0.0435,0.0384,0.039,0.0363,0.0383,0.0414,0.0458,0.0498,0.0571,0.0643,0.073,0.0661,0.0688,0.0554,0.0342,0.0304,0.0247,0.0195,0.0017,0.0011,0.0045,0.0039,0.0112,0.0112,0.0112,0.0112,0.0112,0,0.0396,0.0421,0.0371,0.0377,0.0376,0.0375,0.0457,0.0452,0.0502,0.0518,0.0513,0.0508,0.0427,0.034,0.021,0.0222,0.0105,0.0033,0.0033,-0.002,-0.0046,-0.0009,-0.0022,0.0013,0.0013,0.0012,0.0012,0,0.0426,0.0408,0.0396,0.0347,0.0329,0.0321,0.0317,0.0322,0.0338,0.0396,0.0328,0.0333,0.0174,0.018,0.0109,0.0039,-0.0015,-0.0033,0.0018,0.0018,-0.0029,-0.0048,-0.0025,-0.0029,0.0005,0.0006,0.0006,0,0.0465,0.0438,0.0418,0.0401,0.0357,0.0388,0.0342,0.0342,0.0376,0.0311,0.0346,0.0155,0.0166,0.0111,0.0035,-0.0004,-0.0033,-0.003,-0.0028,-0.0014,0.0024,-0.005,-0.0052,-0.0002,-0.0,0.0001,0.0001,0,0.0467,0.0428,0.0438,0.0406,0.0399,0.0384,0.0362,0.0368,0.0346,0.0316,0.028,0.0196,0.014,0.0063,-0.0021,-0.0059,-0.0048,-0.0041,-0.0025,-0.0036,-0.004,-0.0036,-0.0083,-0.0083,-0.0083,-0.0083,0,0,0.0455,0.0472,0.0501,0.0483,0.0452,0.0452,0.0412,0.0397,0.0343,0.0336,0.0305,0.0196,0.0104,0.003,-0.003,-0.0052,-0.0027,-0.0049,-0.0046,-0.0042,-0.0039,-0.0042,-0.0038,-0.0083,-0.0083,-0.0082,-0.0082,0,0.0488,0.0507,0.0505,0.0477,0.0458,0.0449,0.0443,0.0403,0.0376,0.0327,0.0256,0.0191,0.0117,0.0045,-0.0004,-0.0042,-0.0033,-0.0069,-0.0071,-0.0046,-0.0043,-0.0039,-0.0042,-0.0039,-0.0082,-0.0082,-0.0082,0,0.0473,0.0495,0.0476,0.0488,0.0454,0.0421,0.0397,0.039,0.0348,0.03,0.0236,0.0189,0.0115,0.0057,0.0028,0.0028,-0.0023,-0.0034,-0.0036,-0.0014,0.0014,0.0017,0.002,-0.0007,-0.0007,-0.0007,0,0,0.0487,0.0503,0.0468,0.0479,0.047,0.0412,0.0398,0.0364,0.0325,0.0301,0.025,0.0187,0.0125,0.0091,0.0055,0.0018,0.0037,-0.0023,-0.0027,-0.003,-0.001,0.0017,0.0019,-0.0005,-0.0005,-0.0005,0,0,0.0476,0.0458,0.0412,0.0442,0.0407,0.0373,0.0372,0.0329,0.0285,0.0267,0.0204,0.019,0.0135,0.0113,0.0137,0.0031,0.0044,0.0039,0.0044,0.0039,0.0035,0.0067,0.0099,0,0,0,0,0,0.0424,0.0466,0.0424,0.0421,0.0393,0.0391,0.0384,0.0329,0.0285,0.0287,0.0226,0.0199,0.01,0.0121,0.0115,0.007,0.0013,0.001,0.0007,0.0004,-0.0001,-0.0005,0,0,0,0,0,0,0.0422,0.0421,0.0423,0.0394,0.0386,0.039,0.033,0.0316,0.0283,0.0273,0.021,0.0198,0.0164,0.0122,0.0117,0.0074,0.0101,0.0011,0.0009,0.0006,0.0002,-0.0002,-0.0005,0,0,0,0,0,0.0421,0.042,0.0392,0.0392,0.0385,0.0322,0.0328,0.0316,0.0284,0.0233,0.0219,0.0239,0.0167,0.0157,0.0119,0.0077,0.0104,0.0102,0.001,0.0008,0.0006,0.0,0,0,0,0,0,0,0.042,0.0407,0.0389,0.0384,0.0371,0.0319,0.0311,0.0316,0.0244,0.0231,0.0262,0.0255,0.0169,0.0161,0.0154,0.0077,0.0107,0.0105,0.0104,0.0008,0.0006,0.0005,0,0,0,0,0,0,0.0407,0.0404,0.0387,0.0364,0.0356,0.0317,0.031,0.0298,0.0243,0.0276,0.0269,0.026,0.0172,0.0164,0.0158,0.0143,0.0109,0.0108,0.0106,0.0105,0.0007,0.0005,0,0,0,0,0,0,0.0404,0.0401,0.0365,0.0359,0.0352,0.0294,0.0304,0.0274,0.0238,0.028,0.0232,0.0229,0.0176,0.0169,0.0162,0.015,0.0145,0.0109,0.0108,0.0107,0.0107,0,0,0,0,0,0,0,0.0402,0.0438,0.0417,0.0355,0.0348,0.034,0.0339,0.0337,0.0237,0.0235,0.0232,0.023,0.012,0.0118,0.0116,0.0155,0,0,0.011,0.0109,0,0,0,0,0,0,0,0,0.0437,0.0438,0.0416,0.0415,0.0414,0.034,0.0339,0.0338,0.0237,0.0235,0.0233,0.0231,0.0119,0.0118,0.0116,0,0,0,0,0,0,0,0,0,0,0,0,0,0,0,0.0416,0.0415,0,0.0339,0.0339,0.0338,0.0237,0.0235,0.0233,0.0232,0.0119,0.0118,0.0116,0,0,0,0,0,0,0,0,0,0,0,0,0,0,0,0,0,0,0,0,0,0,0,0,0,0,0,0,0,0,0,0,0,0,0,0,0,0,0,0,0,0,0,0,0,0,0,0,0,0,0,0,0,0,0,0,0,0,0,0,0,0,0,0,0,0,0,0,0]}]],[[{"header":{"parameterUnit":"kt","parameterCategory":2,"dx":1,"dy":1,"la1":30.253999710083008,"la2":30.299108505249023,"lo1":-89.0895004272461,"lo2":-89.04439544677734,"nx":28,"ny":28,"refTime":"2022-10-13T21:00:00:Z","depth":"4","parameterNumber":2,"parameterNumberName":"U-component_of_CURRENTS"},"data":[0.1101,0.1165,0.1174,0.1217,0.1304,0.1379,0.1489,0.1683,0.1722,0.2041,0.2107,0.2375,0.25,0.2693,0.2675,0.2707,0.2755,0.3017,0.301,0.3225,0.3255,0.3281,0.3006,0,0,0,0,0,0.114,0.1125,0.1257,0.1418,0.1531,0.165,0.1824,0.1911,0.2157,0.223,0.2355,0.2549,0.2682,0.2821,0.2727,0.2975,0.3097,0.2852,0.302,0.3244,0.3276,0.2998,0,0,0,0,0,0,0.1186,0.1212,0.1365,0.1586,0.1737,0.18,0.1893,0.1992,0.2064,0.2511,0.2543,0.2932,0.3204,0.3193,0.3173,0.3153,0.3124,0.3048,0.3089,0.3121,0.2867,0.2696,0.2607,0,0,0,0,0,0.1245,0.1367,0.1432,0.1707,0.1845,0.1949,0.2104,0.211,0.2384,0.2667,0.2888,0.3046,0.3258,0.3354,0.3378,0.3345,0.3594,0.3501,0.3518,0.3394,0.3307,0.3271,0.3266,0.3399,0.3403,0.3406,0.3407,0,0.1378,0.1425,0.1673,0.1794,0.1883,0.2065,0.2151,0.2332,0.2465,0.2905,0.2991,0.333,0.3577,0.3525,0.3633,0.3644,0.3555,0.3585,0.3453,0.3358,0.3316,0.3303,0.3288,0.3433,0.3431,0.3429,0.3427,0,0.1455,0.1579,0.1672,0.1842,0.1928,0.2044,0.2199,0.2317,0.2654,0.2938,0.3082,0.3465,0.3672,0.3779,0.39,0.3768,0.3728,0.3643,0.3845,0.3817,0.3349,0.3324,0.3476,0.3467,0.3458,0.3452,0.3446,0,0.1594,0.1634,0.1836,0.1836,0.1965,0.2061,0.2243,0.243,0.2665,0.2873,0.3277,0.3427,0.3646,0.3747,0.3729,0.3649,0.3862,0.349,0.3461,0.3632,0.3608,0.3626,0.3598,0.3844,0.3842,0.3841,0.3839,0,0.1669,0.1776,0.1839,0.1866,0.1979,0.2039,0.2129,0.2407,0.252,0.2981,0.3141,0.3398,0.3541,0.3616,0.3617,0.3587,0.3737,0.3695,0.3437,0.3416,0.3604,0.358,0.3837,0.3836,0.3836,0.3835,0.3834,0,0.1745,0.1801,0.1869,0.1943,0.1972,0.2012,0.2213,0.2324,0.2623,0.2773,0.3014,0.3149,0.3325,0.323,0.3414,0.3341,0.3374,0.3363,0.3372,0.306,0.2939,0.3205,0.3428,0.3424,0.342,0.3416,0.3413,0,0.1771,0.1824,0.1867,0.1919,0.1971,0.205,0.2132,0.2264,0.2443,0.2628,0.2733,0.2916,0.2865,0.2969,0.3025,0.3067,0.3161,0.3016,0.3209,0.3216,0.2886,0.3018,0.3102,0.3359,0.3366,0.3371,0.3375,0,0.1777,0.1871,0.1884,0.1923,0.2011,0.202,0.2127,0.2252,0.2394,0.2459,0.2628,0.2689,0.2789,0.2828,0.285,0.2909,0.3077,0.2895,0.2898,0.2969,0.3324,0.2994,0.2995,0.3075,0.3081,0.3085,0.3337,0,0.1833,0.1879,0.1897,0.1959,0.1991,0.2024,0.21,0.2166,0.2237,0.2313,0.247,0.2476,0.2593,0.2596,0.258,0.2755,0.2766,0.2718,0.2674,0.2804,0.2896,0.2926,0.2551,0.2549,0.2548,0.2547,0,0,0.1847,0.1871,0.1914,0.1942,0.1966,0.2027,0.2055,0.2106,0.2147,0.2226,0.2207,0.2344,0.2344,0.2474,0.2515,0.2505,0.2575,0.2538,0.2733,0.2754,0.2773,0.2867,0.2897,0.2544,0.2544,0.2543,0.2543,0,0.1846,0.1891,0.1912,0.1935,0.1987,0.1995,0.2029,0.2055,0.2111,0.216,0.2177,0.2248,0.2292,0.2334,0.2358,0.2474,0.2502,0.2515,0.2624,0.2717,0.274,0.276,0.2856,0.2884,0.254,0.254,0.254,0,0.1862,0.1877,0.1885,0.1913,0.1939,0.1959,0.1967,0.2003,0.2041,0.2018,0.2097,0.2117,0.2146,0.2216,0.226,0.2241,0.2443,0.2351,0.236,0.2387,0.2481,0.2507,0.253,0.2229,0.2227,0.2226,0,0,0.187,0.1886,0.1902,0.191,0.1939,0.1952,0.1963,0.1978,0.1995,0.2017,0.2037,0.2082,0.2119,0.2158,0.2174,0.2242,0.2278,0.2312,0.2327,0.2339,0.2371,0.2468,0.2494,0.2222,0.2222,0.2222,0,0,0.1855,0.187,0.1899,0.1906,0.1926,0.1899,0.1924,0.1942,0.1979,0.2009,0.2002,0.2008,0.209,0.2096,0.2037,0.219,0.2133,0.2144,0.2177,0.2195,0.221,0.2239,0.2002,0,0,0,0,0,0.1864,0.1865,0.1893,0.1895,0.1893,0.1889,0.1888,0.1904,0.1938,0.1963,0.1991,0.1982,0.2075,0.202,0.2023,0.2102,0.2165,0.2175,0.2185,0.2242,0.2262,0.2278,0,0,0,0,0,0,0.1864,0.1866,0.1891,0.1865,0.1865,0.1887,0.1884,0.1887,0.1936,0.1944,0.1973,0.1979,0.1958,0.2018,0.202,0.2097,0.2001,0.2169,0.2178,0.2185,0.2249,0.2265,0.2279,0,0,0,0,0,0.1865,0.1866,0.187,0.1864,0.1864,0.188,0.1886,0.1889,0.1942,0.1921,0.193,0.1966,0.1956,0.1962,0.202,0.2098,0.1999,0.2,0.2175,0.2181,0.2187,0.2257,0,0,0,0,0,0,0.1865,0.1857,0.1869,0.1869,0.1887,0.1881,0.1884,0.189,0.1919,0.1926,0.1907,0.1911,0.1954,0.1959,0.1963,0.2101,0.1998,0.1999,0.2,0.218,0.2185,0.219,0,0,0,0,0,0,0.1856,0.1856,0.1869,0.1897,0.1899,0.1882,0.1885,0.1886,0.1921,0.1903,0.1907,0.1909,0.197,0.1956,0.196,0.1959,0.1997,0.1998,0.1999,0.1999,0.2184,0.2188,0,0,0,0,0,0,0.1856,0.1856,0.1897,0.1899,0.1901,0.1892,0.1885,0.1897,0.1907,0.1903,0.1913,0.1916,0.1968,0.1971,0.1958,0.1954,0.1958,0.1997,0.1998,0.1998,0.1998,0,0,0,0,0,0,0,0.1856,0.186,0.1877,0.19,0.1902,0.1862,0.1862,0.1861,0.1907,0.191,0.1912,0.1914,0.1993,0.1993,0.1994,0.1951,0,0,0.1997,0.1998,0,0,0,0,0,0,0,0,0.1859,0.186,0.1877,0.1877,0.1877,0.1862,0.1862,0.1861,0.1908,0.191,0.1912,0.1913,0.1993,0.1994,0.1994,0,0,0,0,0,0,0,0,0,0,0,0,0,0,0,0.1877,0.1877,0,0.1862,0.1862,0.1862,0.1908,0.191,0.1911,0.1913,0.1993,0.1994,0.1994,0,0,0,0,0,0,0,0,0,0,0,0,0,0,0,0,0,0,0,0,0,0,0,0,0,0,0,0,0,0,0,0,0,0,0,0,0,0,0,0,0,0,0,0,0,0,0,0,0,0,0,0,0,0,0,0,0,0,0,0,0,0,0,0,0,0,0,0,0]}],[{"header":{"parameterUnit":"kt","parameterCategory":2,"dx":1,"dy":1,"la1":30.253999710083008,"la2":30.299108505249023,"lo1":-89.0895004272461,"lo2":-89.04439544677734,"nx":28,"ny":28,"refTime":"2022-10-13T21:00:00:Z","depth":"4","parameterNumber":3,"parameterNumberName":"V-component_of_CURRENTS"},"data":[0.072,0.0792,0.0834,0.0916,0.0987,0.1088,0.1162,0.1218,0.1177,0.1218,0.0994,0.0973,0.0567,0.0789,0.0198,0.0126,0.0049,-0.033,-0.0335,-0.0425,-0.0418,-0.0412,-0.0315,0,0,0,0,0,0.0748,0.0777,0.0868,0.0971,0.1081,0.1147,0.1253,0.1306,0.1365,0.129,0.127,0.1041,0.066,0.0479,0.0214,0.0149,-0.0166,-0.0168,-0.0238,-0.0421,-0.0413,-0.0322,0,0,0,0,0,0,0.0778,0.081,0.0915,0.1021,0.1123,0.1193,0.125,0.1272,0.1286,0.13,0.1241,0.1022,0.0882,0.0482,0.0198,-0.0059,-0.0109,-0.0165,-0.0172,-0.0168,-0.0059,0.0063,-0.0083,0,0,0,0,0,0.0802,0.0866,0.0918,0.1057,0.1131,0.1204,0.1291,0.1299,0.136,0.1383,0.1274,0.1065,0.0805,0.046,0.0169,-0.0104,-0.0229,-0.0331,-0.0328,-0.0284,-0.0214,-0.0237,-0.0218,-0.0385,-0.0384,-0.0383,-0.0383,0,0.0832,0.088,0.0998,0.1051,0.1086,0.1179,0.1234,0.1273,0.131,0.1307,0.1283,0.1092,0.0974,0.049,0.0224,-0.0155,-0.0203,-0.0311,-0.0263,-0.0199,-0.0229,-0.0211,-0.0193,-0.0377,-0.0377,-0.0378,-0.0378,0,0.083,0.09,0.0963,0.1033,0.1064,0.1118,0.1185,0.1216,0.1259,0.1274,0.1266,0.1118,0.0891,0.0629,0.0291,0.0142,-0.0119,-0.0207,-0.0037,-0.0072,-0.0191,-0.0176,-0.0367,-0.0369,-0.0371,-0.0373,-0.0374,0,0.0834,0.0874,0.0965,0.0985,0.1047,0.1072,0.1136,0.1141,0.1144,0.1164,0.1109,0.1048,0.08,0.06,0.0402,0.0133,0.0114,-0.0035,-0.0086,0.0043,0.0056,0.0004,0.0015,-0.0075,-0.0074,-0.0073,-0.0072,0,0.08,0.0867,0.0942,0.0953,0.0984,0.1005,0.103,0.104,0.1051,0.1041,0.1031,0.0894,0.0824,0.0625,0.0406,0.0422,0.012,0.011,-0.0028,-0.0029,0.0015,0.0024,-0.007,-0.007,-0.007,-0.0069,-0.0069,0,0.0773,0.0816,0.0902,0.0924,0.0933,0.0954,0.0968,0.0994,0.096,0.0952,0.0904,0.0838,0.0731,0.0681,0.0446,0.0507,0.0377,0.0264,0.0254,0.0211,0.0183,0.0191,0.0146,0.0148,0.0151,0.0153,0.0155,0,0.072,0.0798,0.0805,0.0851,0.0881,0.0852,0.0876,0.0864,0.0858,0.0839,0.0754,0.0745,0.0697,0.0687,0.0589,0.046,0.0377,0.0469,0.0236,0.023,0.0214,0.0162,0.0351,0.0185,0.0182,0.0179,0.0177,0,0.0668,0.0721,0.073,0.0743,0.0755,0.0758,0.0779,0.0778,0.0788,0.0752,0.0746,0.0703,0.0666,0.0648,0.0603,0.0519,0.042,0.0477,0.047,0.0412,0.0217,0.0202,0.0182,0.0365,0.0362,0.036,0.0198,0,0.0653,0.0672,0.0692,0.0703,0.0709,0.073,0.0711,0.0709,0.0699,0.0687,0.0666,0.0621,0.0598,0.0578,0.0565,0.0506,0.0487,0.0454,0.0434,0.0425,0.0359,0.0342,0.0525,0.0524,0.0524,0.0523,0,0,0.0592,0.0618,0.0595,0.0619,0.0627,0.0591,0.0621,0.0617,0.0614,0.0614,0.0606,0.0566,0.0543,0.0521,0.053,0.0518,0.0463,0.0532,0.0446,0.0438,0.043,0.0365,0.035,0.0522,0.0522,0.0521,0.0521,0,0.0582,0.0563,0.0585,0.0583,0.0581,0.0573,0.0577,0.0574,0.0579,0.0588,0.056,0.0535,0.0537,0.0511,0.0499,0.0511,0.0453,0.0512,0.0544,0.0443,0.0436,0.0429,0.0365,0.0352,0.0519,0.052,0.052,0,0.0538,0.053,0.053,0.0522,0.0526,0.0539,0.0515,0.0529,0.0542,0.051,0.0536,0.0509,0.0486,0.0489,0.0488,0.0484,0.0438,0.0483,0.0486,0.0489,0.0383,0.0376,0.037,0.0446,0.0446,0.0446,0,0,0.0526,0.053,0.0508,0.0515,0.0516,0.0509,0.0513,0.051,0.051,0.0516,0.0509,0.0498,0.0485,0.0485,0.0473,0.0477,0.0422,0.0476,0.0479,0.0482,0.0487,0.0383,0.0377,0.0446,0.0446,0.0446,0,0,0.0525,0.0504,0.0488,0.0493,0.0489,0.0487,0.0505,0.0495,0.0505,0.0508,0.0489,0.0487,0.0486,0.0475,0.0475,0.047,0.0453,0.0453,0.0487,0.0491,0.0494,0.0503,0.0455,0,0,0,0,0,0.0491,0.0502,0.0487,0.0484,0.0478,0.0486,0.0487,0.049,0.0486,0.0502,0.0496,0.0482,0.0473,0.0473,0.0469,0.0475,0.0443,0.0443,0.0444,0.0487,0.0491,0.0495,0,0,0,0,0,0,0.049,0.0486,0.0487,0.0481,0.0479,0.0485,0.0476,0.0478,0.0485,0.0487,0.0483,0.0481,0.0471,0.0473,0.047,0.0475,0.0456,0.0443,0.0444,0.0444,0.0488,0.0492,0.0495,0,0,0,0,0,0.0489,0.0486,0.0473,0.0482,0.0481,0.048,0.0477,0.0478,0.0492,0.0473,0.0472,0.0494,0.0471,0.0469,0.0471,0.0477,0.0457,0.0456,0.0443,0.0444,0.0444,0.049,0,0,0,0,0,0,0.0488,0.0498,0.0474,0.0473,0.048,0.0481,0.0482,0.0478,0.0479,0.0478,0.048,0.0481,0.0471,0.0469,0.0467,0.0479,0.0459,0.0458,0.0457,0.0444,0.0444,0.0444,0,0,0,0,0,0,0.0499,0.0498,0.0474,0.0472,0.0472,0.0483,0.0482,0.0473,0.0478,0.0487,0.0487,0.048,0.0463,0.047,0.0468,0.0455,0.046,0.0459,0.0458,0.0458,0.0444,0.0444,0,0,0,0,0,0,0.0499,0.0498,0.0472,0.0472,0.0472,0.0475,0.0474,0.0464,0.0488,0.0487,0.0488,0.0488,0.0462,0.0461,0.0469,0.0456,0.0455,0.0459,0.0459,0.0458,0.0458,0,0,0,0,0,0,0,0.0499,0.0501,0.0468,0.0473,0.0473,0.0471,0.0471,0.0472,0.0488,0.0488,0.0488,0.0488,0.0464,0.0463,0.0462,0.0457,0,0,0.046,0.0459,0,0,0,0,0,0,0,0,0.0502,0.0502,0.0468,0.0468,0.0467,0.0471,0.0471,0.0472,0.0488,0.0488,0.0488,0.0488,0.0464,0.0463,0.0463,0,0,0,0,0,0,0,0,0,0,0,0,0,0,0,0.0468,0.0468,0,0.0471,0.0471,0.0472,0.0488,0.0488,0.0488,0.0488,0.0464,0.0463,0.0463,0,0,0,0,0,0,0,0,0,0,0,0,0,0,0,0,0,0,0,0,0,0,0,0,0,0,0,0,0,0,0,0,0,0,0,0,0,0,0,0,0,0,0,0,0,0,0,0,0,0,0,0,0,0,0,0,0,0,0,0,0,0,0,0,0,0,0,0,0]}]]]